Time,TemperatureF,DewpointF,PressureIn,WindDirection,WindDirectionDegrees,WindSpeedMPH,WindSpeedGustMPH,Humidity,HourlyPrecipIn,Conditions,Clouds,dailyrainin,SolarRadiationWatts/m^2,SoftwareType,DateUTC
2013-03-30 00:00:00,44.9,31.0,30.08,WNW,302,4.0,9.0,58,0.00,,,0.00,0,Wunderground v.1.15,2013-03-30 04:00:00,
2013-03-30 00:02:00,44.9,31.0,30.08,WNW,302,4.0,9.0,58,0.00,,,0.00,0,Wunderground v.1.15,2013-03-30 04:02:00,
2013-03-30 00:04:00,44.9,31.0,30.08,WNW,302,4.0,9.0,58,0.00,,,0.00,0,Wunderground v.1.15,2013-03-30 04:04:00,
2013-03-30 00:08:00,44.9,31.0,30.08,WNW,302,5.0,9.0,58,0.00,,,0.00,0,Wunderground v.1.15,2013-03-30 04:08:00,
2013-03-30 00:14:00,44.8,30.9,30.08,WNW,302,6.0,8.0,58,0.00,,,0.00,0,Wunderground v.1.15,2013-03-30 04:14:00,
2013-03-30 00:20:00,44.8,30.9,30.08,WNW,303,5.0,5.0,58,0.00,,,0.00,0,Wunderground v.1.15,2013-03-30 04:20:00,
2013-03-30 00:26:00,44.8,31.3,30.08,NW,306,5.0,8.0,59,0.00,,,0.00,0,Wunderground v.1.15,2013-03-30 04:26:00,
2013-03-30 00:32:00,44.6,31.1,30.08,NW,307,4.0,8.0,59,0.00,,,0.00,0,Wunderground v.1.15,2013-03-30 04:32:00,
2013-03-30 00:38:00,44.6,31.6,30.08,WNW,290,4.0,8.0,60,0.00,,,0.00,0,Wunderground v.1.15,2013-03-30 04:38:00,
2013-03-30 00:44:00,44.5,31.5,30.08,WNW,290,5.0,8.0,60,0.00,,,0.00,0,Wunderground v.1.15,2013-03-30 04:44:00,
2013-03-30 00:50:00,44.5,31.5,30.08,NW,306,5.0,8.0,60,0.00,,,0.00,0,Wunderground v.1.15,2013-03-30 04:50:00,
2013-03-30 00:56:00,44.5,31.5,30.09,NW,305,5.0,8.0,60,0.00,,,0.00,0,Wunderground v.1.15,2013-03-30 04:56:00,
2013-03-30 01:02:00,44.3,31.3,30.09,NW,305,4.0,8.0,60,0.00,,,0.00,0,Wunderground v.1.15,2013-03-30 05:02:00,
2013-03-30 01:08:00,44.3,31.3,30.09,WNW,303,4.0,8.0,60,0.00,,,0.00,0,Wunderground v.1.15,2013-03-30 05:08:00,
2013-03-30 01:14:00,44.2,31.2,30.09,WNW,300,3.0,6.0,60,0.00,,,0.00,0,Wunderground v.1.15,2013-03-30 05:14:00,
2013-03-30 01:20:00,44.2,31.2,30.09,WNW,300,3.0,6.0,60,0.00,,,0.00,0,Wunderground v.1.15,2013-03-30 05:20:00,
2013-03-30 01:26:00,44.1,31.5,30.09,WNW,300,4.0,6.0,61,0.00,,,0.00,0,Wunderground v.1.15,2013-03-30 05:26:00,
2013-03-30 01:32:00,44.1,31.5,30.09,WNW,302,5.0,6.0,61,0.00,,,0.00,0,Wunderground v.1.15,2013-03-30 05:32:00,
2013-03-30 01:38:00,43.9,31.3,30.09,WNW,294,6.0,7.0,61,0.00,,,0.00,0,Wunderground v.1.15,2013-03-30 05:38:00,
2013-03-30 01:44:00,43.9,31.3,30.09,WNW,300,6.0,6.0,61,0.00,,,0.00,0,Wunderground v.1.15,2013-03-30 05:44:00,
2013-03-30 01:50:00,43.9,31.7,30.09,WNW,300,4.0,4.0,62,0.00,,,0.00,0,Wunderground v.1.15,2013-03-30 05:50:00,
2013-03-30 01:56:00,43.8,31.6,30.09,WNW,300,3.0,6.0,62,0.00,,,0.00,0,Wunderground v.1.15,2013-03-30 05:56:00,
2013-03-30 02:02:00,43.8,31.6,30.09,WNW,300,4.0,7.0,62,0.00,,,0.00,0,Wunderground v.1.15,2013-03-30 06:02:00,
2013-03-30 02:08:00,43.6,31.4,30.09,WNW,300,3.0,7.0,62,0.00,,,0.00,0,Wunderground v.1.15,2013-03-30 06:08:00,
2013-03-30 02:14:00,43.6,31.4,30.08,WNW,300,2.0,3.0,62,0.00,,,0.00,0,Wunderground v.1.15,2013-03-30 06:14:00,
2013-03-30 02:20:00,43.5,31.3,30.08,WNW,300,3.0,4.0,62,0.00,,,0.00,0,Wunderground v.1.15,2013-03-30 06:20:00,
2013-03-30 02:26:00,43.3,31.1,30.08,WNW,300,4.0,5.0,62,0.00,,,0.00,0,Wunderground v.1.15,2013-03-30 06:26:00,
2013-03-30 02:32:00,43.2,31.1,30.08,WNW,300,2.0,3.0,62,0.00,,,0.00,0,Wunderground v.1.15,2013-03-30 06:32:00,
2013-03-30 02:38:00,43.2,31.4,30.08,WNW,300,2.0,3.0,63,0.00,,,0.00,0,Wunderground v.1.15,2013-03-30 06:38:00,
2013-03-30 02:44:00,43.1,31.4,30.08,WNW,300,3.0,5.0,63,0.00,,,0.00,0,Wunderground v.1.15,2013-03-30 06:44:00,
2013-03-30 02:50:00,43.1,31.4,30.08,WNW,300,3.0,3.0,63,0.00,,,0.00,0,Wunderground v.1.15,2013-03-30 06:50:00,
2013-03-30 02:56:00,43.1,31.4,30.08,NW,304,3.0,8.0,63,0.00,,,0.00,0,Wunderground v.1.15,2013-03-30 06:56:00,
2013-03-30 03:02:00,43.1,31.0,30.08,WNW,294,4.0,4.0,62,0.00,,,0.00,0,Wunderground v.1.15,2013-03-30 07:02:00,
2013-03-30 03:08:00,43.1,31.0,30.08,WNW,294,2.0,5.0,62,0.00,,,0.00,0,Wunderground v.1.15,2013-03-30 07:08:00,
2013-03-30 03:14:00,43.1,31.0,30.08,WNW,294,3.0,7.0,62,0.00,,,0.00,0,Wunderground v.1.15,2013-03-30 07:14:00,
2013-03-30 03:20:00,42.9,31.2,30.08,WNW,294,3.0,3.0,63,0.00,,,0.00,0,Wunderground v.1.15,2013-03-30 07:20:00,
2013-03-30 03:26:00,42.9,31.2,30.08,WNW,293,3.0,6.0,63,0.00,,,0.00,0,Wunderground v.1.15,2013-03-30 07:26:00,
2013-03-30 03:32:00,42.8,31.1,30.08,WNW,293,3.0,6.0,63,0.00,,,0.00,0,Wunderground v.1.15,2013-03-30 07:32:00,
2013-03-30 03:38:00,42.8,31.1,30.08,WNW,293,3.0,6.0,63,0.00,,,0.00,0,Wunderground v.1.15,2013-03-30 07:38:00,
2013-03-30 03:44:00,42.8,30.7,30.08,NW,307,3.0,5.0,62,0.00,,,0.00,0,Wunderground v.1.15,2013-03-30 07:44:00,
2013-03-30 03:50:00,42.6,30.5,30.08,WNW,303,4.0,4.0,62,0.00,,,0.00,0,Wunderground v.1.15,2013-03-30 07:50:00,
2013-03-30 03:56:00,42.6,30.5,30.08,NW,304,5.0,7.0,62,0.00,,,0.00,0,Wunderground v.1.15,2013-03-30 07:56:00,
2013-03-30 04:02:00,42.5,30.4,30.08,WNW,300,6.0,8.0,62,0.00,,,0.00,0,Wunderground v.1.15,2013-03-30 08:02:00,
2013-03-30 04:08:00,42.3,30.6,30.08,NW,304,5.0,8.0,63,0.00,,,0.00,0,Wunderground v.1.15,2013-03-30 08:08:00,
2013-03-30 04:14:00,42.1,30.4,30.08,NW,305,5.0,7.0,63,0.00,,,0.00,0,Wunderground v.1.15,2013-03-30 08:14:00,
2013-03-30 04:20:00,41.8,30.5,30.08,NW,305,4.0,5.0,64,0.00,,,0.00,0,Wunderground v.1.15,2013-03-30 08:20:00,
2013-03-30 04:26:00,41.5,30.2,30.08,NW,305,4.0,6.0,64,0.00,,,0.00,0,Wunderground v.1.15,2013-03-30 08:26:00,
2013-03-30 04:32:00,41.3,30.4,30.08,NW,305,4.0,4.0,65,0.00,,,0.00,0,Wunderground v.1.15,2013-03-30 08:32:00,
2013-03-30 04:38:00,41.2,30.3,30.08,WNW,303,3.0,8.0,65,0.00,,,0.00,0,Wunderground v.1.15,2013-03-30 08:38:00,
2013-03-30 04:44:00,41.1,30.2,30.08,NW,312,4.0,5.0,65,0.00,,,0.00,0,Wunderground v.1.15,2013-03-30 08:44:00,
2013-03-30 04:50:00,40.9,30.4,30.08,West,270,3.0,4.0,66,0.00,,,0.00,0,Wunderground v.1.15,2013-03-30 08:50:00,
2013-03-30 04:56:00,40.6,30.1,30.08,West,271,2.0,5.0,66,0.00,,,0.00,0,Wunderground v.1.15,2013-03-30 08:56:00,
2013-03-30 05:02:00,40.5,30.4,30.08,WNW,302,3.0,4.0,67,0.00,,,0.00,0,Wunderground v.1.15,2013-03-30 09:02:00,
2013-03-30 05:08:00,40.2,30.1,30.08,NW,304,2.0,6.0,67,0.00,,,0.00,0,Wunderground v.1.15,2013-03-30 09:08:00,
2013-03-30 05:14:00,40.1,30.4,30.08,NW,307,3.0,6.0,68,0.00,,,0.00,0,Wunderground v.1.15,2013-03-30 09:14:00,
2013-03-30 05:20:00,39.8,30.1,30.08,West,267,3.0,3.0,68,0.00,,,0.00,0,Wunderground v.1.15,2013-03-30 09:20:00,
2013-03-30 05:26:00,39.6,30.3,30.08,NW,309,3.0,6.0,69,0.00,,,0.00,0,Wunderground v.1.15,2013-03-30 09:26:00,
2013-03-30 05:32:00,39.6,30.3,30.08,NW,308,4.0,6.0,69,0.00,,,0.00,0,Wunderground v.1.15,2013-03-30 09:32:00,
2013-03-30 05:38:00,39.5,30.2,30.08,NW,308,3.0,6.0,69,0.00,,,0.00,0,Wunderground v.1.15,2013-03-30 09:38:00,
2013-03-30 05:44:00,39.2,29.9,30.08,NW,308,2.0,6.0,69,0.00,,,0.00,0,Wunderground v.1.15,2013-03-30 09:44:00,
2013-03-30 05:50:00,39.1,30.1,30.08,NW,308,2.0,2.0,70,0.00,,,0.00,0,Wunderground v.1.15,2013-03-30 09:50:00,
2013-03-30 05:56:00,38.9,30.3,30.08,NW,308,1.0,6.0,71,0.00,,,0.00,0,Wunderground v.1.15,2013-03-30 09:56:00,
2013-03-30 06:02:00,38.8,30.2,30.08,NW,308,1.0,6.0,71,0.00,,,0.00,0,Wunderground v.1.15,2013-03-30 10:02:00,
2013-03-30 06:08:00,38.6,30.0,30.08,NW,308,2.0,6.0,71,0.00,,,0.00,0,Wunderground v.1.15,2013-03-30 10:08:00,
2013-03-30 06:14:00,38.5,29.9,30.08,NW,308,3.0,4.0,71,0.00,,,0.00,0,Wunderground v.1.15,2013-03-30 10:14:00,
2013-03-30 06:20:00,38.5,29.6,30.08,NW,308,3.0,3.0,70,0.00,,,0.00,0,Wunderground v.1.15,2013-03-30 10:20:00,
2013-03-30 06:26:00,38.3,29.4,30.08,NW,308,3.0,5.0,70,0.00,,,0.00,0,Wunderground v.1.15,2013-03-30 10:26:00,
2013-03-30 06:32:00,38.3,29.7,30.08,NW,308,3.0,4.0,71,0.00,,,0.00,5,Wunderground v.1.15,2013-03-30 10:32:00,
2013-03-30 06:38:00,38.3,29.4,30.08,NW,308,1.0,4.0,70,0.00,,,0.00,9,Wunderground v.1.15,2013-03-30 10:38:00,
2013-03-30 06:44:00,38.2,29.3,30.09,NW,308,1.0,4.0,70,0.00,,,0.00,14,Wunderground v.1.15,2013-03-30 10:44:00,
2013-03-30 06:50:00,38.2,29.6,30.09,NW,308,1.0,1.0,71,0.00,,,0.00,19,Wunderground v.1.15,2013-03-30 10:50:00,
2013-03-30 06:56:00,38.3,29.7,30.10,NW,308,1.0,4.0,71,0.00,,,0.00,26,Wunderground v.1.15,2013-03-30 10:56:00,
2013-03-30 07:02:00,38.3,29.7,30.10,NW,308,1.0,4.0,71,0.00,,,0.00,30,Wunderground v.1.15,2013-03-30 11:02:00,
2013-03-30 07:08:00,38.5,29.6,30.10,NW,308,1.0,4.0,70,0.00,,,0.00,30,Wunderground v.1.15,2013-03-30 11:08:00,
2013-03-30 07:14:00,38.6,29.7,30.10,NW,308,1.0,3.0,70,0.00,,,0.00,35,Wunderground v.1.15,2013-03-30 11:14:00,
2013-03-30 07:20:00,38.9,29.6,30.10,NW,308,1.0,1.0,69,0.00,,,0.00,88,Wunderground v.1.15,2013-03-30 11:20:00,
2013-03-30 07:26:00,39.2,29.5,30.10,NW,308,1.0,3.0,68,0.00,,,0.00,58,Wunderground v.1.15,2013-03-30 11:26:00,
2013-03-30 07:32:00,39.5,29.4,30.10,NW,308,1.0,3.0,67,0.00,,,0.00,83,Wunderground v.1.15,2013-03-30 11:32:00,
2013-03-30 07:38:00,39.6,29.5,30.10,NW,308,1.0,3.0,67,0.00,,,0.00,98,Wunderground v.1.15,2013-03-30 11:38:00,
2013-03-30 07:44:00,39.9,29.5,30.10,NW,308,1.0,3.0,66,0.00,,,0.00,128,Wunderground v.1.15,2013-03-30 11:44:00,
2013-03-30 07:50:00,40.3,29.5,30.10,NW,308,2.0,2.0,65,0.00,,,0.00,160,Wunderground v.1.15,2013-03-30 11:50:00,
2013-03-30 07:56:00,40.8,29.2,30.11,NW,306,4.0,7.0,63,0.00,,,0.00,142,Wunderground v.1.15,2013-03-30 11:56:00,
2013-03-30 08:02:00,41.1,29.1,30.11,WNW,296,4.0,5.0,62,0.00,,,0.00,156,Wunderground v.1.15,2013-03-30 12:02:00,
2013-03-30 08:08:00,41.5,29.0,30.11,WNW,285,3.0,5.0,61,0.00,,,0.00,151,Wunderground v.1.15,2013-03-30 12:08:00,
2013-03-30 08:14:00,42.1,28.8,30.11,WNW,292,3.0,5.0,59,0.00,,,0.00,241,Wunderground v.1.15,2013-03-30 12:14:00,
2013-03-30 08:20:00,42.6,28.8,30.11,NW,319,5.0,5.0,58,0.00,,,0.00,218,Wunderground v.1.15,2013-03-30 12:20:00,
2013-03-30 08:26:00,43.1,28.9,30.11,NW,317,5.0,7.0,57,0.00,,,0.00,267,Wunderground v.1.15,2013-03-30 12:26:00,
2013-03-30 08:32:00,43.5,28.4,30.11,NW,306,4.0,8.0,55,0.00,,,0.00,186,Wunderground v.1.15,2013-03-30 12:32:00,
2013-03-30 08:38:00,43.8,28.2,30.11,NW,312,4.0,8.0,54,0.00,,,0.00,183,Wunderground v.1.15,2013-03-30 12:38:00,
2013-03-30 08:44:00,43.9,28.3,30.11,NNW,343,7.0,11.0,54,0.00,,,0.00,163,Wunderground v.1.15,2013-03-30 12:44:00,
2013-03-30 08:50:00,44.5,28.0,30.11,NW,304,7.0,7.0,52,0.00,,,0.00,320,Wunderground v.1.15,2013-03-30 12:50:00,
2013-03-30 08:56:00,45.1,26.6,30.11,WNW,298,7.0,13.0,48,0.00,,,0.00,385,Wunderground v.1.15,2013-03-30 12:56:00,
2013-03-30 09:02:00,45.4,26.3,30.11,NW,317,8.0,9.0,47,0.00,,,0.00,462,Wunderground v.1.15,2013-03-30 13:02:00,
2013-03-30 09:08:00,45.8,26.2,30.11,NW,317,8.0,10.0,46,0.00,,,0.00,492,Wunderground v.1.15,2013-03-30 13:08:00,
2013-03-30 09:14:00,46.0,25.3,30.11,NW,323,9.0,10.0,44,0.00,,,0.00,510,Wunderground v.1.15,2013-03-30 13:14:00,
2013-03-30 09:20:00,46.1,25.4,30.11,WNW,300,10.0,12.0,44,0.00,,,0.00,529,Wunderground v.1.15,2013-03-30 13:20:00,
2013-03-30 09:26:00,46.4,25.1,30.11,West,275,9.0,12.0,43,0.00,,,0.00,545,Wunderground v.1.15,2013-03-30 13:26:00,
2013-03-30 09:32:00,46.8,24.9,30.11,NW,312,8.0,10.0,42,0.00,,,0.00,561,Wunderground v.1.15,2013-03-30 13:32:00,
2013-03-30 09:38:00,47.4,24.9,30.11,NNE,15,6.0,10.0,41,0.00,,,0.00,582,Wunderground v.1.15,2013-03-30 13:38:00,
2013-03-30 09:44:00,47.7,24.5,30.11,NW,321,5.0,10.0,40,0.00,,,0.00,599,Wunderground v.1.15,2013-03-30 13:44:00,
2013-03-30 09:50:00,48.2,25.0,30.11,NE,41,5.0,10.0,40,0.00,,,0.00,613,Wunderground v.1.15,2013-03-30 13:50:00,
2013-03-30 09:56:00,48.8,24.3,30.10,NW,313,5.0,10.0,38,0.00,,,0.00,633,Wunderground v.1.15,2013-03-30 13:56:00,
2013-03-30 10:02:00,48.6,22.8,30.10,NNW,344,6.0,10.0,36,0.00,,,0.00,647,Wunderground v.1.15,2013-03-30 14:02:00,
2013-03-30 10:08:00,49.4,23.5,30.10,NW,309,5.0,10.0,36,0.00,,,0.00,664,Wunderground v.1.15,2013-03-30 14:08:00,
2013-03-30 10:14:00,50.1,22.1,30.10,North,360,3.0,6.0,33,0.00,,,0.00,680,Wunderground v.1.15,2013-03-30 14:14:00,
2013-03-30 10:20:00,49.9,22.6,30.10,North,9,5.0,5.0,34,0.00,,,0.00,694,Wunderground v.1.15,2013-03-30 14:20:00,
2013-03-30 10:26:00,50.1,22.8,30.11,NW,309,5.0,7.0,34,0.00,,,0.00,707,Wunderground v.1.15,2013-03-30 14:26:00,
2013-03-30 10:32:00,50.5,22.4,30.11,NW,322,5.0,9.0,33,0.00,,,0.00,719,Wunderground v.1.15,2013-03-30 14:32:00,
2013-03-30 10:38:00,50.8,22.7,30.11,WNW,302,5.0,9.0,33,0.00,,,0.00,731,Wunderground v.1.15,2013-03-30 14:38:00,
2013-03-30 10:44:00,51.1,21.5,30.10,NW,317,4.0,10.0,31,0.00,,,0.00,742,Wunderground v.1.15,2013-03-30 14:44:00,
2013-03-30 10:50:00,50.7,21.9,30.10,NNW,336,6.0,7.0,32,0.00,,,0.00,752,Wunderground v.1.15,2013-03-30 14:50:00,
2013-03-30 10:56:00,50.7,21.9,30.10,NNE,28,6.0,7.0,32,0.00,,,0.00,765,Wunderground v.1.15,2013-03-30 14:56:00,
2013-03-30 11:02:00,51.0,21.4,30.10,NW,316,5.0,6.0,31,0.00,,,0.00,777,Wunderground v.1.15,2013-03-30 15:02:00,
2013-03-30 11:08:00,51.1,19.9,30.10,NW,304,6.0,12.0,29,0.00,,,0.00,798,Wunderground v.1.15,2013-03-30 15:08:00,
2013-03-30 11:14:00,51.1,20.7,30.10,NW,308,8.0,12.0,30,0.00,,,0.00,812,Wunderground v.1.15,2013-03-30 15:14:00,
2013-03-30 11:20:00,51.9,19.8,30.10,NW,311,7.0,7.0,28,0.00,,,0.00,846,Wunderground v.1.15,2013-03-30 15:20:00,
2013-03-30 11:26:00,51.9,19.8,30.10,WNW,294,6.0,12.0,28,0.00,,,0.00,853,Wunderground v.1.15,2013-03-30 15:26:00,
2013-03-30 11:32:00,52.3,20.1,30.10,North,5,5.0,12.0,28,0.00,,,0.00,928,Wunderground v.1.15,2013-03-30 15:32:00,
2013-03-30 11:38:00,52.3,20.1,30.10,NW,326,4.0,12.0,28,0.00,,,0.00,371,Wunderground v.1.15,2013-03-30 15:38:00,
2013-03-30 11:44:00,51.9,18.9,30.09,NW,319,6.0,12.0,27,0.00,,,0.00,172,Wunderground v.1.15,2013-03-30 15:44:00,
2013-03-30 11:50:00,52.3,18.4,30.09,NW,316,6.0,12.0,26,0.00,,,0.00,954,Wunderground v.1.15,2013-03-30 15:50:00,
2013-03-30 11:56:00,52.5,18.6,30.08,NW,304,5.0,12.0,26,0.00,,,0.00,1005,Wunderground v.1.15,2013-03-30 15:56:00,
2013-03-30 12:02:00,52.2,18.3,30.08,NW,313,7.0,12.0,26,0.00,,,0.00,603,Wunderground v.1.15,2013-03-30 16:02:00,
2013-03-30 12:08:00,52.5,19.4,30.08,NW,304,6.0,12.0,27,0.00,,,0.00,993,Wunderground v.1.15,2013-03-30 16:08:00,
2013-03-30 12:14:00,53.2,19.2,30.08,WNW,302,5.0,7.0,26,0.00,,,0.00,1058,Wunderground v.1.15,2013-03-30 16:14:00,
2013-03-30 12:20:00,53.6,16.6,30.08,North,10,4.0,4.0,23,0.00,,,0.00,993,Wunderground v.1.15,2013-03-30 16:20:00,
2013-03-30 12:26:00,54.4,20.2,30.08,NNW,341,5.0,10.0,26,0.00,,,0.00,1028,Wunderground v.1.15,2013-03-30 16:26:00,
2013-03-30 12:32:00,53.9,17.9,30.08,NE,43,5.0,7.0,24,0.00,,,0.00,1039,Wunderground v.1.15,2013-03-30 16:32:00,
2013-03-30 12:38:00,53.6,18.6,30.08,North,360,4.0,7.0,25,0.00,,,0.00,969,Wunderground v.1.15,2013-03-30 16:38:00,
2013-03-30 12:44:00,54.2,17.1,30.08,WNW,302,3.0,9.0,23,0.00,,,0.00,997,Wunderground v.1.15,2013-03-30 16:44:00,
2013-03-30 12:50:00,54.1,17.1,30.08,NW,304,6.0,6.0,23,0.00,,,0.00,976,Wunderground v.1.15,2013-03-30 16:50:00,
2013-03-30 12:56:00,54.1,18.1,30.07,WNW,293,5.0,7.0,24,0.00,,,0.00,977,Wunderground v.1.15,2013-03-30 16:56:00,
2013-03-30 13:02:00,53.5,16.6,30.07,NW,315,5.0,7.0,23,0.00,,,0.00,965,Wunderground v.1.15,2013-03-30 17:02:00,
2013-03-30 13:08:00,54.4,17.3,30.07,NNE,30,5.0,7.0,23,0.00,,,0.00,953,Wunderground v.1.15,2013-03-30 17:08:00,
2013-03-30 13:14:00,54.2,16.1,30.07,NW,321,6.0,8.0,22,0.00,,,0.00,907,Wunderground v.1.15,2013-03-30 17:14:00,
2013-03-30 13:20:00,54.5,16.4,30.07,NNE,24,6.0,12.0,22,0.00,,,0.00,896,Wunderground v.1.15,2013-03-30 17:20:00,
2013-03-30 13:26:00,54.5,17.4,30.07,WNW,290,7.0,13.0,23,0.00,,,0.00,889,Wunderground v.1.15,2013-03-30 17:26:00,
2013-03-30 13:32:00,53.9,14.8,30.07,SW,236,7.0,8.0,21,0.00,,,0.00,882,Wunderground v.1.15,2013-03-30 17:32:00,
2013-03-30 13:38:00,54.2,15.1,30.07,WNW,292,6.0,8.0,21,0.00,,,0.00,886,Wunderground v.1.15,2013-03-30 17:38:00,
2013-03-30 13:44:00,54.2,15.1,30.06,NW,317,8.0,11.0,21,0.00,,,0.00,856,Wunderground v.1.15,2013-03-30 17:44:00,
2013-03-30 13:50:00,54.5,14.2,30.06,WNW,303,7.0,8.0,20,0.00,,,0.00,835,Wunderground v.1.15,2013-03-30 17:50:00,
2013-03-30 13:56:00,54.7,14.4,30.06,WSW,254,6.0,8.0,20,0.00,,,0.00,821,Wunderground v.1.15,2013-03-30 17:56:00,
2013-03-30 14:02:00,55.3,14.8,30.06,WNW,298,4.0,6.0,20,0.00,,,0.00,817,Wunderground v.1.15,2013-03-30 18:02:00,
2013-03-30 14:08:00,55.6,13.9,30.06,NW,304,5.0,12.0,19,0.00,,,0.00,805,Wunderground v.1.15,2013-03-30 18:08:00,
2013-03-30 14:14:00,55.7,12.8,30.05,SW,217,4.0,12.0,18,0.00,,,0.00,795,Wunderground v.1.15,2013-03-30 18:14:00,
2013-03-30 14:20:00,55.3,12.4,30.05,West,275,4.0,12.0,18,0.00,,,0.00,788,Wunderground v.1.15,2013-03-30 18:20:00,
2013-03-30 14:26:00,56.0,13.0,30.05,WNW,299,6.0,12.0,18,0.00,,,0.00,775,Wunderground v.1.15,2013-03-30 18:26:00,
2013-03-30 14:32:00,56.3,12.0,30.05,WNW,296,5.0,12.0,17,0.00,,,0.00,768,Wunderground v.1.15,2013-03-30 18:32:00,
2013-03-30 14:38:00,55.7,11.5,30.05,West,277,6.0,12.0,17,0.00,,,0.00,754,Wunderground v.1.15,2013-03-30 18:38:00,
2013-03-30 14:44:00,56.2,13.2,30.05,NNE,17,7.0,12.0,18,0.00,,,0.00,742,Wunderground v.1.15,2013-03-30 18:44:00,
2013-03-30 14:50:00,56.3,12.0,30.05,NW,309,5.0,5.0,17,0.00,,,0.00,731,Wunderground v.1.15,2013-03-30 18:50:00,
2013-03-30 14:56:00,56.3,12.0,30.05,WSW,247,5.0,12.0,17,0.00,,,0.00,717,Wunderground v.1.15,2013-03-30 18:56:00,
2013-03-30 15:02:00,56.0,11.7,30.05,WNW,302,8.0,15.0,17,0.00,,,0.00,703,Wunderground v.1.15,2013-03-30 19:02:00,
2013-03-30 15:08:00,55.4,11.2,30.05,North,360,7.0,15.0,17,0.00,,,0.00,691,Wunderground v.1.15,2013-03-30 19:08:00,
2013-03-30 15:14:00,55.6,11.4,30.05,WNW,292,3.0,8.0,17,0.00,,,0.00,673,Wunderground v.1.15,2013-03-30 19:14:00,
2013-03-30 15:20:00,56.0,13.0,30.05,West,265,4.0,9.0,18,0.00,,,0.00,661,Wunderground v.1.15,2013-03-30 19:20:00,
2013-03-30 15:26:00,55.6,13.9,30.04,North,5,6.0,9.0,19,0.00,,,0.00,647,Wunderground v.1.15,2013-03-30 19:26:00,
2013-03-30 15:32:00,56.2,13.2,30.04,NW,315,5.0,8.0,18,0.00,,,0.00,631,Wunderground v.1.15,2013-03-30 19:32:00,
2013-03-30 15:38:00,55.9,12.9,30.04,North,5,6.0,8.0,18,0.00,,,0.00,621,Wunderground v.1.15,2013-03-30 19:38:00,
2013-03-30 15:44:00,56.6,13.5,30.04,NNE,16,4.0,8.0,18,0.00,,,0.00,605,Wunderground v.1.15,2013-03-30 19:44:00,
2013-03-30 15:50:00,56.9,13.8,30.04,North,5,5.0,8.0,18,0.00,,,0.00,584,Wunderground v.1.15,2013-03-30 19:50:00,
2013-03-30 15:56:00,56.0,13.0,30.04,NW,317,7.0,11.0,18,0.00,,,0.00,563,Wunderground v.1.15,2013-03-30 19:56:00,
2013-03-30 16:02:00,56.2,13.2,30.04,WNW,303,5.0,10.0,18,0.00,,,0.00,543,Wunderground v.1.15,2013-03-30 20:02:00,
2013-03-30 16:08:00,56.5,13.4,30.04,WNW,298,4.0,10.0,18,0.00,,,0.00,526,Wunderground v.1.15,2013-03-30 20:08:00,
2013-03-30 16:14:00,56.7,14.8,30.04,West,259,5.0,10.0,19,0.00,,,0.00,519,Wunderground v.1.15,2013-03-30 20:14:00,
2013-03-30 16:20:00,56.5,13.4,30.04,NW,306,6.0,6.0,18,0.00,,,0.00,501,Wunderground v.1.15,2013-03-30 20:20:00,
2013-03-30 16:26:00,56.3,14.5,30.04,NW,312,5.0,11.0,19,0.00,,,0.00,497,Wunderground v.1.15,2013-03-30 20:26:00,
2013-03-30 16:32:00,56.3,14.5,30.04,West,281,6.0,10.0,19,0.00,,,0.00,490,Wunderground v.1.15,2013-03-30 20:32:00,
2013-03-30 16:38:00,56.3,14.5,30.04,WSW,245,5.0,10.0,19,0.00,,,0.00,446,Wunderground v.1.15,2013-03-30 20:38:00,
2013-03-30 16:44:00,56.6,14.8,30.04,WSW,241,5.0,10.0,19,0.00,,,0.00,476,Wunderground v.1.15,2013-03-30 20:44:00,
2013-03-30 16:50:00,56.2,14.4,30.04,WNW,288,6.0,6.0,19,0.00,,,0.00,461,Wunderground v.1.15,2013-03-30 20:50:00,
2013-03-30 16:56:00,56.7,14.8,30.04,NW,308,7.0,10.0,19,0.00,,,0.00,413,Wunderground v.1.15,2013-03-30 20:56:00,
2013-03-30 17:02:00,56.2,13.2,30.04,WNW,298,9.0,12.0,18,0.00,,,0.00,376,Wunderground v.1.15,2013-03-30 21:02:00,
2013-03-30 17:08:00,56.0,13.0,30.04,WNW,295,8.0,13.0,18,0.00,,,0.00,339,Wunderground v.1.15,2013-03-30 21:08:00,
2013-03-30 17:14:00,56.5,13.4,30.04,NNE,30,5.0,13.0,18,0.00,,,0.00,318,Wunderground v.1.15,2013-03-30 21:14:00,
2013-03-30 17:20:00,56.7,12.3,30.04,NNE,22,3.0,13.0,17,0.00,,,0.00,301,Wunderground v.1.15,2013-03-30 21:20:00,
2013-03-30 17:26:00,56.6,12.2,30.04,WNW,292,4.0,13.0,17,0.00,,,0.00,278,Wunderground v.1.15,2013-03-30 21:26:00,
2013-03-30 17:32:00,56.3,10.6,30.04,NNW,342,6.0,13.0,16,0.00,,,0.00,179,Wunderground v.1.15,2013-03-30 21:32:00,
2013-03-30 17:38:00,55.9,10.3,30.04,WNW,302,6.0,13.0,16,0.00,,,0.00,230,Wunderground v.1.15,2013-03-30 21:38:00,
2013-03-30 17:44:00,56.0,10.4,30.05,WNW,300,5.0,13.0,16,0.00,,,0.00,211,Wunderground v.1.15,2013-03-30 21:44:00,
2013-03-30 17:50:00,56.0,11.7,30.05,NW,326,5.0,5.0,17,0.00,,,0.00,188,Wunderground v.1.15,2013-03-30 21:50:00,
2013-03-30 17:56:00,56.0,10.4,30.05,NW,314,5.0,13.0,16,0.00,,,0.00,167,Wunderground v.1.15,2013-03-30 21:56:00,
2013-03-30 18:02:00,56.0,11.7,30.05,NW,311,5.0,16.0,17,0.00,,,0.00,144,Wunderground v.1.15,2013-03-30 22:02:00,
2013-03-30 18:08:00,55.6,11.4,30.05,WNW,301,6.0,16.0,17,0.00,,,0.00,127,Wunderground v.1.15,2013-03-30 22:08:00,
2013-03-30 18:14:00,55.3,11.2,30.05,NW,318,7.0,9.0,17,0.00,,,0.00,109,Wunderground v.1.15,2013-03-30 22:14:00,
2013-03-30 18:20:00,55.3,11.2,30.05,NW,323,6.0,13.0,17,0.00,,,0.00,63,Wunderground v.1.15,2013-03-30 22:20:00,
2013-03-30 18:26:00,54.8,10.7,30.06,WNW,302,6.0,13.0,17,0.00,,,0.00,46,Wunderground v.1.15,2013-03-30 22:26:00,
2013-03-30 18:32:00,54.5,10.5,30.06,NW,315,6.0,9.0,17,0.00,,,0.00,49,Wunderground v.1.15,2013-03-30 22:32:00,
2013-03-30 18:38:00,54.4,10.4,30.06,NW,310,6.0,9.0,17,0.00,,,0.00,35,Wunderground v.1.15,2013-03-30 22:38:00,
2013-03-30 18:44:00,54.1,11.5,30.07,WNW,302,6.0,9.0,18,0.00,,,0.00,21,Wunderground v.1.15,2013-03-30 22:44:00,
2013-03-30 18:50:00,53.9,11.3,30.07,NW,311,5.0,9.0,18,0.00,,,0.00,18,Wunderground v.1.15,2013-03-30 22:50:00,
2013-03-30 18:56:00,53.6,11.0,30.07,NW,311,5.0,9.0,18,0.00,,,0.00,12,Wunderground v.1.15,2013-03-30 22:56:00,
2013-03-30 19:02:00,53.3,10.8,30.07,NW,315,5.0,9.0,18,0.00,,,0.00,9,Wunderground v.1.15,2013-03-30 23:02:00,
2013-03-30 19:08:00,53.1,10.6,30.07,NW,309,5.0,9.0,18,0.00,,,0.00,5,Wunderground v.1.15,2013-03-30 23:08:00,
2013-03-30 19:14:00,52.8,11.6,30.07,NW,309,5.0,9.0,19,0.00,,,0.00,0,Wunderground v.1.15,2013-03-30 23:14:00,
2013-03-30 19:20:00,52.5,12.5,30.07,NW,309,4.0,9.0,20,0.00,,,0.00,0,Wunderground v.1.15,2013-03-30 23:20:00,
2013-03-30 19:26:00,52.3,12.4,30.08,NW,313,4.0,9.0,20,0.00,,,0.00,0,Wunderground v.1.15,2013-03-30 23:26:00,
2013-03-30 19:32:00,52.2,12.3,30.08,NW,319,4.0,9.0,20,0.00,,,0.00,0,Wunderground v.1.15,2013-03-30 23:32:00,
2013-03-30 19:38:00,51.9,12.0,30.08,NW,319,3.0,9.0,20,0.00,,,0.00,0,Wunderground v.1.15,2013-03-30 23:38:00,
2013-03-30 19:44:00,51.6,12.9,30.08,NW,313,2.0,9.0,21,0.00,,,0.00,0,Wunderground v.1.15,2013-03-30 23:44:00,
2013-03-30 19:50:00,51.3,12.6,30.08,NW,313,2.0,2.0,21,0.00,,,0.00,0,Wunderground v.1.15,2013-03-30 23:50:00,
2013-03-30 19:56:00,51.1,12.5,30.09,NW,313,2.0,9.0,21,0.00,,,0.00,0,Wunderground v.1.15,2013-03-30 23:56:00,
2013-03-30 20:02:00,50.8,13.3,30.09,NW,313,1.0,9.0,22,0.00,,,0.00,0,Wunderground v.1.15,2013-03-31 00:02:00,
2013-03-30 20:08:00,50.5,13.0,30.09,NW,313,1.0,9.0,22,0.00,,,0.00,0,Wunderground v.1.15,2013-03-31 00:08:00,
2013-03-30 20:14:00,50.4,12.9,30.09,NW,313,1.0,3.0,22,0.00,,,0.00,0,Wunderground v.1.15,2013-03-31 00:14:00,
2013-03-30 20:20:00,50.1,12.7,30.09,NW,313,1.0,3.0,22,0.00,,,0.00,0,Wunderground v.1.15,2013-03-31 00:20:00,
2013-03-30 20:26:00,49.8,13.4,30.10,NW,313,1.0,3.0,23,0.00,,,0.00,0,Wunderground v.1.15,2013-03-31 00:26:00,
2013-03-30 20:32:00,49.5,13.2,30.10,NW,313,1.0,3.0,23,0.00,,,0.00,0,Wunderground v.1.15,2013-03-31 00:32:00,
2013-03-30 20:38:00,49.2,12.9,30.10,NW,313,1.0,3.0,23,0.00,,,0.00,0,Wunderground v.1.15,2013-03-31 00:38:00,
2013-03-30 20:44:00,48.9,13.6,30.10,NW,313,1.0,3.0,24,0.00,,,0.00,0,Wunderground v.1.15,2013-03-31 00:44:00,
2013-03-30 20:50:00,48.5,14.2,30.10,NW,313,0.0,3.0,25,0.00,,,0.00,0,Wunderground v.1.15,2013-03-31 00:50:00,
2013-03-30 20:56:00,48.0,13.8,30.11,NW,313,0.0,3.0,25,0.00,,,0.00,0,Wunderground v.1.15,2013-03-31 00:56:00,
2013-03-30 21:02:00,47.7,13.5,30.11,NW,313,0.0,3.0,25,0.00,,,0.00,0,Wunderground v.1.15,2013-03-31 01:02:00,
2013-03-30 21:08:00,47.3,15.8,30.11,NW,313,0.0,3.0,28,0.00,,,0.00,0,Wunderground v.1.15,2013-03-31 01:08:00,
2013-03-30 21:14:00,46.7,15.3,30.11,NW,313,0.0,0.0,28,0.00,,,0.00,0,Wunderground v.1.15,2013-03-31 01:14:00,
2013-03-30 21:20:00,46.1,17.1,30.11,NW,313,0.0,0.0,31,0.00,,,0.00,0,Wunderground v.1.15,2013-03-31 01:20:00,
2013-03-30 21:26:00,45.7,17.5,30.12,NW,313,0.0,0.0,32,0.00,,,0.00,0,Wunderground v.1.15,2013-03-31 01:26:00,
2013-03-30 21:32:00,45.1,17.7,30.12,NW,313,0.0,0.0,33,0.00,,,0.00,0,Wunderground v.1.15,2013-03-31 01:32:00,
2013-03-30 21:38:00,44.6,18.6,30.12,NW,313,0.0,0.0,35,0.00,,,0.00,0,Wunderground v.1.15,2013-03-31 01:38:00,
2013-03-30 21:44:00,44.1,18.8,30.12,NW,313,0.0,0.0,36,0.00,,,0.00,0,Wunderground v.1.15,2013-03-31 01:44:00,
2013-03-30 21:50:00,43.8,19.2,30.12,NW,313,0.0,0.0,37,0.00,,,0.00,0,Wunderground v.1.15,2013-03-31 01:50:00,
2013-03-30 21:56:00,43.6,21.4,30.13,NW,313,0.0,0.0,41,0.00,,,0.00,0,Wunderground v.1.15,2013-03-31 01:56:00,
2013-03-30 22:02:00,43.2,22.2,30.13,NW,313,0.0,0.0,43,0.00,,,0.00,0,Wunderground v.1.15,2013-03-31 02:02:00,
2013-03-30 22:08:00,42.8,21.8,30.13,NW,313,0.0,0.0,43,0.00,,,0.00,0,Wunderground v.1.15,2013-03-31 02:08:00,
2013-03-30 22:14:00,42.3,20.2,30.13,NW,313,0.0,0.0,41,0.00,,,0.00,0,Wunderground v.1.15,2013-03-31 02:14:00,
2013-03-30 22:20:00,42.2,19.6,30.13,NW,313,0.0,0.0,40,0.00,,,0.00,0,Wunderground v.1.15,2013-03-31 02:20:00,
2013-03-30 22:26:00,42.2,20.7,30.13,NW,313,0.0,0.0,42,0.00,,,0.00,0,Wunderground v.1.15,2013-03-31 02:26:00,
2013-03-30 22:32:00,41.9,21.0,30.13,NW,313,0.0,0.0,43,0.00,,,0.00,0,Wunderground v.1.15,2013-03-31 02:32:00,
2013-03-30 22:38:00,41.5,21.2,30.13,NW,313,0.0,0.0,44,0.00,,,0.00,0,Wunderground v.1.15,2013-03-31 02:38:00,
2013-03-30 22:44:00,41.1,21.3,30.13,NW,313,0.0,0.0,45,0.00,,,0.00,0,Wunderground v.1.15,2013-03-31 02:44:00,
2013-03-30 22:50:00,40.8,22.6,30.13,NW,313,0.0,0.0,48,0.00,,,0.00,0,Wunderground v.1.15,2013-03-31 02:50:00,
2013-03-30 22:56:00,40.5,22.8,30.13,NW,313,0.0,0.0,49,0.00,,,0.00,0,Wunderground v.1.15,2013-03-31 02:56:00,
2013-03-30 23:02:00,40.2,22.5,30.13,NW,313,0.0,0.0,49,0.00,,,0.00,0,Wunderground v.1.15,2013-03-31 03:02:00,
2013-03-30 23:08:00,39.9,22.3,30.13,NW,313,0.0,0.0,49,0.00,,,0.00,0,Wunderground v.1.15,2013-03-31 03:08:00,
2013-03-30 23:14:00,39.8,22.7,30.13,NW,313,0.0,0.0,50,0.00,,,0.00,0,Wunderground v.1.15,2013-03-31 03:14:00,
2013-03-30 23:20:00,39.5,22.4,30.13,NW,312,0.0,1.0,50,0.00,,,0.00,0,Wunderground v.1.15,2013-03-31 03:20:00,
2013-03-30 23:26:00,39.5,22.8,30.13,NW,313,0.0,1.0,51,0.00,,,0.00,0,Wunderground v.1.15,2013-03-31 03:26:00,
2013-03-30 23:32:00,39.3,23.6,30.13,NW,313,0.0,0.0,53,0.00,,,0.00,0,Wunderground v.1.15,2013-03-31 03:32:00,
2013-03-30 23:38:00,39.2,22.6,30.13,NW,313,0.0,0.0,51,0.00,,,0.00,0,Wunderground v.1.15,2013-03-31 03:38:00,
2013-03-30 23:44:00,38.9,22.3,30.13,NW,313,0.0,0.0,51,0.00,,,0.00,0,Wunderground v.1.15,2013-03-31 03:44:00,
2013-03-30 23:50:00,38.8,22.7,30.13,NW,313,0.0,0.0,52,0.00,,,0.00,0,Wunderground v.1.15,2013-03-31 03:50:00,
2013-03-30 23:56:00,38.5,22.4,30.13,NW,313,0.0,0.0,52,0.00,,,0.00,0,Wunderground v.1.15,2013-03-31 03:56:00,